Regional Weather Roundup
Issued by NWS

Home | Current Version | Previous Version | Text Only | Print | Product List | Glossary On
Versions: 1 2 3 4 5 6 7 8 9 10 11 12 13 14 15 16 17 18 19 20 21 22 23 24 25 26 27 28 29 30 31 32 33 34 35 36 37 38 39 40 41 42 43 44 45 46 47 48 49 50
000
ASUS43 KDTX 242310
RWRMI
MICHIGAN HOURLY REGIONAL WEATHER ROUNDUP
NATIONAL WEATHER SERVICE DETROIT/PONTIAC MI
700 PM EDT FRI OCT 24 2014

NOTE: "FAIR" INDICATES FEW OR NO CLOUDS BELOW 12,000 FEET WITH NO
SIGNIFICANT WEATHER AND/OR OBSTRUCTION TO VISIBILITY.

MIZ047>049-052>055-059>063-066>070-074>076-081>083-250000-
SOUTHEAST LOWER MICHIGAN

CITY           SKY/WX    TMP DP  RH WIND       PRES   REMARKS
ADRIAN         CLOUDY    54  46  74 SW3       30.00S
ALMA           PTCLDY    55  48  79 W5        29.97R
ANN ARBOR      MOCLDY    54  43  66 SW6       29.98S
BAD AXE        CLOUDY    55  48  79 CALM      29.95S
CARO           CLOUDY    56  48  73 W3        29.95S
DETROIT CITY   MOCLDY    59  44  57 SW9       29.98R
DETROIT        CLOUDY    58  44  60 SW10      29.99S
FLINT          CLOUDY    59  48  67 CALM      29.97S
GROSSE ILE     CLOUDY    57  46  67 W3        29.98R
HILLSDALE      MOCLDY    53  48  81 CALM      29.99S
HOWELL         CLOUDY    56  47  71 SW6       29.97S

CITY           SKY/WX    TMP DP  RH WIND       PRES   REMARKS
JACKSON        MOCLDY    53  46  77 S3        29.98S
LAMBERTVILLE   PTCLDY    54  45  71 CALM      30.00S
LANSING        CLOUDY    58  47  66 W5        29.98S
LAPEER         MOCLDY    56  46  70 W3        29.96F
MASON          CLOUDY    57  46  66 CALM      29.98R
MONROE         CLOUDY    57  46  67 W3        29.98R
MT. CLEMENS    MOCLDY    58  44  61 SW7       29.95R
PONTIAC        MOCLDY    56  45  66 SW6       29.96F
PORT HOPE        N/A     53  48  83 CALM      29.94S
PORT HURON     CLOUDY    54  45  71 S3        29.97S
TRI CITIES     CLOUDY    57  48  72 S3        29.96S
TROY           PTCLDY    58  43  56 SW6       29.99S
SAGINAW HB     CLOUDY    55  46  71 SW3       29.95S
$$
MIZ043>046-050>051-056>058-064>065-071>073-077>080-250000-
SOUTHWEST LOWER MICHIGAN

CITY           SKY/WX    TMP DP  RH WIND       PRES   REMARKS
BATTLE CREEK   CLEAR     57  45  64 W3        29.98S
BENTON HARBOR  PTCLDY    53  48  83 CALM      29.97F
BIG RAPIDS     CLOUDY    53  53  99 W6        29.96S
COLDWATER      PTCLDY    57  49  75 CALM      29.98S
FREMONT        CLOUDY    52  49  87 W5        29.97S
HOLLAND        CLEAR     55  48  77 SW3       29.98S
GRAND RAPIDS   PTCLDY    55  49  80 W6        29.98R
IONIA          FAIR      57  48  72 W6        29.97R
KALAMAZOO      CLEAR     56  47  71 CALM      29.98S
LUDINGTON      CLOUDY    52  49  92 S6        29.96F
MARSHALL       PTCLDY    53  47  78 CALM      29.97S
MOUNT PLEASANT PTCLDY    55  48  79 W3        29.96S
MUSKEGON       CLOUDY    53  48  83 SW8       29.98S
SOUTH HAVEN    CLEAR     56  49  79 CALM      29.97S
$$
MIZ016>042-250000-
NORTHERN LOWER MICHIGAN

CITY           SKY/WX    TMP DP  RH WIND       PRES   REMARKS
ALPENA         CLOUDY    54  47  77 SW3       29.93S
BEAVER ISLAND  CLOUDY    50  48  91 SW10      29.91F
BELLAIRE       CLOUDY    53  48  84 CALM      29.94S
CADILLAC       CLOUDY    51  48  90 SW5       29.95R
CHARLEVOIX     CLOUDY    53  49  86 SW5       29.96S
FRANKFORT      CLOUDY    51  46  84 SW6       29.95S
GAYLORD        CLOUDY    50  46  86 SW8       29.94R
GRAYLING       CLOUDY    54  50  86 W3        29.95S
HARBOR SPRINGS CLOUDY    53  49  87 SW6       29.93R
HOUGHTON LAKE  CLOUDY    51  48  89 CALM      29.95S
MANISTEE       CLOUDY    52  45  76 S5        29.97S
OSCODA         CLOUDY    53  48  83 CALM      29.93S
PELLSTON       CLOUDY    53  47  79 SW3       29.93S
ROGERS CITY    CLOUDY    52  48  87 CALM      29.93S
TRAVERSE CITY  CLOUDY    53  47  79 CALM      29.93S
$$
MIZ007>008-015-250000-
EASTERN UPPER MICHIGAN

CITY           SKY/WX    TMP DP  RH WIND       PRES   REMARKS
KINROSS        CLOUDY    52  48  87 SW8       29.90S
MACKINAC ISLAN CLOUDY    51  48  89 SW12G18   29.92S
NEWBERRY       CLOUDY    48  46  93 SW9G21    29.88F
S. S. MARIE    CLOUDY    51  46  83 S8        29.89S
MUNISING         N/A     51  45  79 S15       29.83F
$$
MIZ004>006-011>014-085-250000-
CENTRAL UPPER MICHIGAN

CITY           SKY/WX    TMP DP  RH WIND       PRES   REMARKS
MANISTIQUE     CLOUDY    48  47  95 SW9G17    29.89S
ESCANABA       CLOUDY    50  46  87 S12       29.87F
MENOMINEE      CLEAR     50  46  87 SW8       29.89S
SAWYER-GWINN   CLEAR     54  46  76 S12       29.83F
$$
MIZ001>003-009>011-084-250000-
WESTERN UPPER MICHIGAN

CITY           SKY/WX    TMP DP  RH WIND       PRES   REMARKS
IRON MOUNTAIN  MOCLDY    56  48  74 SE7       29.84F
HOUGHTON       MOCLDY    54  45  71 E3        29.74F
COPPER HARBOR    N/A     52  45  77 SW9       29.73F
IRONWOOD       MOCLDY    63  50  63 SW9       29.75S
$$

ABBREVIATIONS USED IN REMARKS
   TC - TEMPERATURE IN CELSIUS
  WCI - WIND CHILL INDEX
   HX - HEAT INDEX
  VSB - VISIBILITY




USA.gov is the U.S. government's official web portal to all federal, state and local government web resources and services.